Wind_Speed
26 26 27 27 27 28 28 28 29 28 28 28 29 29 29 31 32 32 33 33 34 35 35 35 35 35 36 37 39 41 42 43 44 45 46 46 47 49 50 51 52 53 54 55
27 27 28 27 27 28 29 29 29 29 28 28 29 29 30 31 31 32 33 35 35 35 34 34 34 35 35 35 36 38 40 42 42 43 44 44 44 45 47 48 50 52 53 54
28 28 29 28 28 29 29 29 29 29 30 30 30 30 30 30 30 31 32 32 34 34 34 34 34 34 34 35 35 36 38 40 41 42 44 44 44 45 46 47 48 50 50 52
29 29 29 29 29 30 29 28 28 28 29 30 30 30 30 31 31 31 31 32 32 33 34 34 35 35 35 35 35 36 37 38 40 41 41 43 44 45 46 46 46 48 49 50
30 30 31 30 30 29 30 28 28 28 29 30 30 30 31 32 32 32 32 31 32 32 32 33 34 33 33 34 35 35 37 37 36 37 38 40 41 43 44 45 46 47 49 50
30 31 31 30 30 30 30 29 29 30 30 30 31 31 31 31 31 32 32 32 32 31 31 32 33 33 33 32 32 33 35 36 36 36 37 38 40 41 42 43 44 45 46 48
30 31 30 31 30 31 30 31 31 30 30 31 31 32 31 31 31 31 31 31 31 31 31 31 31 31 31 31 31 31 33 35 36 37 38 38 38 39 40 41 41 42 43 44
31 31 31 31 31 31 31 31 31 31 30 31 31 31 31 31 31 31 31 31 31 31 31 31 30 29 29 29 29 29 30 32 34 35 36 37 36 37 38 39 39 40 41 42
31 31 31 31 31 32 31 31 30 30 30 31 31 31 30 30 30 30 31 31 31 30 30 30 29 28 29 28 29 29 29 30 32 33 35 36 36 36 37 38 38 39 41 42
31 31 31 31 31 31 30 29 29 29 30 31 31 31 30 30 30 29 29 30 30 29 29 29 29 28 29 29 28 28 28 30 32 33 35 35 35 36 38 39 39 40 41 43
30 31 31 31 31 31 30 29 30 30 31 31 31 31 30 30 30 30 30 30 30 30 30 29 29 29 29 28 29 29 29 29 30 31 32 34 35 35 36 37 39 40 41 42
30 31 31 31 31 31 31 30 30 31 31 31 31 30 29 29 29 29 29 29 29 29 28 28 28 28 28 28 29 29 30 29 29 30 30 31 32 34 34 35 36 38 40 41
31 31 31 32 31 31 31 31 31 31 31 31 31 30 29 29 29 29 29 29 29 28 27 27 27 27 27 28 28 28 29 30 30 29 30 31 32 33 33 34 35 36 38 40
30 31 31 31 31 31 31 31 31 31 31 30 30 30 30 29 29 29 29 28 28 27 27 27 27 27 27 27 27 27 28 29 29 30 30 30 31 32 33 34 34 35 36 38
31 31 31 31 31 31 31 31 31 31 31 30 30 30 30 29 29 30 29 29 28 27 27 27 27 27 27 27 27 27 27 28 28 29 30 30 30 31 32 32 33 34 35 36
31 31 31 31 32 32 32 31 31 31 31 31 30 30 30 30 30 30 29 28 27 26 26 26 27 27 26 26 26 27 27 28 28 28 28 29 30 30 31 31 32 33 34 35
31 31 31 31 32 32 32 32 32 31 31 30 30 29 30 30 30 29 28 27 26 26 26 26 26 26 26 26 26 26 26 27 27 27 27 28 28 28 28 29 30 30 31 33
31 31 31 31 31 32 32 32 31 31 31 31 30 30 30 30 29 28 27 27 26 26 26 26 26 26 25 25 25 25 25 25 25 25 26 26 26 26 26 27 27 28 29 30
31 30 31 31 31 32 31 31 32 31 31 31 31 31 31 30 30 29 28 27 27 27 26 26 26 25 25 25 25 25 25 25 25 24 24 25 25 25 25 26 26 27 27 28
30 31 31 31 31 31 31 32 32 32 32 31 31 31 30 30 29 29 28 27 27 27 27 26 25 25 25 25 25 25 25 25 25 25 25 25 25 25 26 26 26 26 27 27
31 31 31 31 32 32 32 32 32 32 31 31 31 30 30 30 29 29 28 27 27 27 26 26 25 25 25 25 25 25 25 25 25 25 25 25 25 26 26 26 26 26 26 27
31 31 31 31 32 32 32 32 32 31 31 31 31 30 30 29 29 28 28 27 27 26 26 25 26 26 25 25 25 26 26 26 26 26 26 26 26 26 26 26 26 25 25 25
31 31 31 31 31 32 32 32 31 31 31 31 30 30 29 29 28 28 27 27 26 26 26 26 26 26 25 25 26 26 26 27 27 27 27 27 27 27 26 26 26 25 25 24
31 30 30 31 31 31 31 31 31 31 31 30 30 29 29 28 28 27 26 26 26 26 26 26 26 26 26 26 26 26 27 27 27 27 27 27 27 27 27 26 26 26 25 25
31 31 31 31 31 31 31 31 31 31 30 30 29 29 29 28 28 27 26 26 26 26 26 26 26 26 26 27 27 27 27 27 28 28 27 27 27 27 27 26 26 25 25 24
31 31 31 31 31 31 31 31 30 30 30 29 29 29 29 29 28 27 26 26 26 26 26 26 26 26 26 27 27 27 27 27 27 27 27 26 26 26 26 26 26 25 25 24
31 31 30 30 30 30 30 30 30 30 29 29 28 28 28 28 27 27 26 26 25 25 25 25 25 26 26 26 26 26 26 26 26 26 26 26 26 26 25 25 25 25 25 24
Wind_Direction
309 309 309 308 308 305 302 300 298 298 296 294 293 292 290 287 283 280 279 278 278 277 275 274 272 271 270 267 265 262 259 257 254 253 253 252 252 251 251 251 250 250 249 249
309 308 307 307 308 306 303 301 299 298 297 295 296 295 293 290 287 283 281 279 278 277 276 275 273 273 272 269 268 264 261 258 255 252 251 252 252 252 252 252 251 250 248 248
311 310 308 307 308 308 306 303 301 299 297 295 298 298 295 291 289 286 283 281 280 278 277 277 276 275 273 270 270 267 263 259 256 254 253 254 254 254 254 253 251 249 248 248
311 312 311 311 310 307 306 305 303 301 299 296 296 296 294 292 291 289 288 284 282 279 277 276 276 275 274 272 270 268 265 261 258 257 257 257 256 256 255 254 252 250 247 247
312 312 312 313 311 310 308 304 302 302 301 300 299 296 294 293 292 290 289 287 285 283 280 278 277 274 273 271 270 268 266 262 260 259 258 259 258 256 256 256 255 253 250 248
312 311 314 314 313 311 308 307 306 303 302 301 300 297 295 294 293 292 290 288 287 286 284 281 279 277 275 272 270 268 265 262 260 260 261 261 260 258 259 258 257 255 252 249
312 312 313 314 313 311 308 307 306 305 304 303 301 299 297 295 294 293 291 290 289 288 286 283 282 279 277 274 272 269 267 264 262 262 263 264 262 260 260 259 258 256 253 251
312 312 313 312 312 311 308 306 305 305 305 304 303 301 299 296 295 293 292 290 289 287 285 283 282 280 278 275 272 271 270 267 265 264 263 263 263 261 260 259 257 257 255 255
311 311 310 311 311 311 310 307 307 306 305 305 304 302 300 298 295 294 293 292 290 288 286 284 282 279 279 278 275 273 272 269 267 265 265 264 264 262 261 261 259 259 258 257
310 311 310 310 310 310 309 307 306 306 306 305 305 303 301 299 297 296 294 293 291 289 287 284 282 280 280 280 278 276 275 272 269 269 268 267 266 264 263 263 262 261 260 258
308 309 310 310 309 309 308 306 306 306 306 306 305 303 302 300 298 297 296 294 292 289 287 284 282 280 280 280 279 276 276 276 273 270 269 268 267 266 265 264 263 261 260 259
307 307 308 309 309 309 308 307 306 306 307 306 305 304 303 301 300 299 297 295 293 291 288 284 282 281 281 280 279 278 276 275 274 272 271 269 268 268 267 266 264 263 262 260
307 307 307 308 308 308 308 307 307 307 307 306 305 305 304 303 302 301 299 297 295 292 289 285 283 282 281 281 280 279 278 276 275 274 273 271 269 270 269 267 266 264 263 261
308 307 307 308 308 307 307 307 308 308 308 307 306 305 305 304 303 302 300 298 295 293 289 286 284 283 283 282 281 280 280 279 278 276 275 274 272 271 270 269 267 267 265 263
307 307 307 307 308 308 308 307 308 308 308 307 306 306 305 305 304 302 300 298 295 293 290 287 286 284 283 283 282 281 281 280 280 279 278 277 275 274 273 272 270 269 268 265
308 307 307 307 308 309 308 308 308 308 308 306 306 305 305 305 304 303 301 298 295 293 291 289 287 286 285 284 283 282 282 281 280 280 280 279 277 277 276 275 273 271 270 268
309 309 308 308 308 310 310 309 309 308 307 307 306 305 305 306 306 305 303 300 297 294 293 290 288 286 286 285 284 284 283 283 282 281 280 280 279 278 278 277 276 274 272 269
311 311 310 310 310 310 311 310 309 309 308 307 305 305 305 305 305 304 303 302 300 298 295 293 290 288 288 288 286 286 285 285 285 283 281 281 280 279 280 280 279 277 275 272
311 311 312 312 311 312 312 311 310 309 308 307 306 305 305 304 303 303 303 301 300 299 297 294 291 289 288 288 287 287 287 286 285 285 284 282 282 282 281 281 280 280 278 275
312 312 313 312 312 313 313 312 312 311 310 308 308 307 306 305 304 303 303 301 299 298 297 295 292 289 288 288 287 287 287 287 287 286 285 284 283 282 282 281 281 280 278 277
314 313 313 313 313 313 313 313 314 313 312 311 310 309 307 305 304 303 302 301 299 298 296 294 290 288 287 287 287 287 287 287 287 287 287 285 284 284 283 283 282 281 279 278
314 313 313 314 315 315 315 315 314 314 313 312 311 310 309 307 305 303 301 300 299 298 296 294 291 289 287 286 286 286 287 287 287 287 286 286 285 285 284 283 283 282 280 278
313 313 313 314 315 316 315 315 315 314 313 313 312 311 311 309 307 305 302 300 298 298 296 294 292 290 288 287 286 285 286 286 286 286 286 285 285 285 284 283 283 283 281 279
312 312 313 314 315 315 315 315 315 315 315 314 313 312 311 311 309 307 304 301 299 298 297 295 293 290 289 288 287 286 286 286 286 286 286 285 284 284 283 282 282 282 281 279
313 312 312 313 314 315 315 316 316 317 317 316 314 312 312 312 310 308 306 303 301 300 299 297 295 292 290 289 288 287 286 286 286 286 286 285 285 285 283 282 281 281 281 280
312 312 312 312 313 314 315 316 317 317 317 316 315 314 313 313 312 310 307 305 303 302 300 298 296 294 292 290 290 288 287 287 286 286 285 285 285 284 283 282 281 280 279 278
312 312 312 312 313 314 315 316 317 317 317 317 316 316 316 315 314 312 310 308 305 303 302 301 299 297 294 293 292 290 289 289 288 287 286 285 284 283 282 282 280 278 277 276
Height
5603 5599 5595 5591 5588 5584 5580 5577 5574 5572 5568 5566 5562 5559 5557 5554 5552 5550 5548 5545 5543 5541 5539 5537 5536 5535 5534 5533 5533 5534 5535 5536 5537 5539 5541 5542 5544 5546 5549 5551 5554 5557 5560 5563
5597 5593 5588 5585 5582 5578 5574 5570 5566 5563 5561 5557 5554 5551 5548 5545 5543 5541 5538 5536 5533 5531 5529 5528 5526 5525 5524 5523 5523 5523 5523 5524 5525 5527 5528 5530 5531 5533 5535 5537 5539 5542 5545 5548
5591 5586 5582 5579 5575 5571 5567 5563 5559 5555 5554 5549 5546 5543 5540 5537 5534 5531 5529 5526 5524 5522 5520 5518 5517 5515 5514 5513 5512 5512 5512 5513 5514 5515 5517 5518 5519 5521 5522 5524 5525 5528 5530 5534
5583 5579 5575 5574 5567 5563 5559 5556 5551 5548 5544 5541 5538 5534 5531 5528 5525 5522 5519 5516 5514 5512 5510 5508 5507 5506 5504 5503 5503 5502 5502 5502 5503 5505 5506 5507 5507 5508 5509 5510 5512 5514 5517 5520
5575 5571 5568 5565 5560 5555 5551 5549 5544 5540 5537 5533 5530 5526 5523 5519 5516 5513 5510 5507 5505 5502 5500 5498 5497 5495 5494 5493 5493 5492 5492 5492 5493 5494 5494 5495 5495 5496 5497 5498 5499 5501 5503 5506
5568 5563 5560 5558 5553 5547 5544 5541 5537 5533 5529 5525 5521 5519 5517 5512 5508 5505 5501 5499 5496 5494 5491 5489 5488 5486 5484 5483 5482 5482 5482 5482 5483 5483 5483 5483 5484 5484 5485 5486 5487 5488 5490 5493
5561 5556 5553 5550 5544 5540 5537 5534 5529 5524 5521 5517 5513 5510 5507 5503 5500 5496 5493 5490 5488 5485 5483 5480 5479 5477 5475 5474 5473 5472 5472 5472 5473 5472 5473 5473 5473 5473 5474 5474 5475 5477 5478 5481
5553 5549 5548 5542 5537 5533 5530 5525 5520 5516 5513 5509 5505 5501 5498 5494 5491 5488 5485 5482 5479 5477 5474 5472 5470 5468 5467 5465 5464 5463 5463 5463 5463 5463 5463 5462 5462 5463 5463 5463 5464 5465 5466 5468
5548 5545 5539 5534 5530 5526 5521 5517 5513 5509 5505 5501 5498 5494 5490 5486 5483 5480 5477 5474 5471 5468 5466 5464 5462 5460 5459 5457 5456 5455 5454 5453 5453 5453 5452 5452 5452 5452 5452 5452 5453 5453 5454 5456
5540 5536 5531 5527 5522 5518 5514 5510 5506 5502 5498 5494 5490 5486 5482 5479 5475 5472 5469 5466 5463 5460 5458 5456 5454 5452 5450 5449 5447 5446 5445 5444 5443 5443 5442 5442 5441 5441 5441 5442 5441 5442 5443 5444
5532 5528 5524 5520 5515 5511 5507 5503 5499 5495 5490 5486 5482 5478 5474 5471 5467 5464 5461 5458 5455 5452 5450 5448 5446 5444 5442 5441 5439 5438 5437 5435 5434 5433 5432 5432 5431 5431 5430 5430 5430 5430 5431 5432
5525 5521 5517 5513 5508 5504 5500 5496 5491 5487 5483 5479 5475 5471 5467 5463 5460 5456 5453 5450 5447 5444 5441 5439 5437 5436 5434 5432 5431 5430 5428 5427 5425 5424 5422 5421 5421 5420 5419 5419 5418 5418 5419 5420
5517 5513 5509 5504 5500 5496 5492 5488 5484 5480 5475 5471 5467 5463 5459 5456 5452 5448 5445 5442 5439 5436 5433 5431 5429 5427 5426 5424 5422 5421 5419 5417 5416 5414 5413 5411 5410 5410 5409 5408 5408 5408 5408 5408
5509 5505 5501 5497 5493 5488 5484 5480 5476 5472 5467 5463 5459 5455 5451 5448 5444 5440 5437 5434 5430 5428 5425 5423 5421 5419 5417 5415 5414 5412 5410 5408 5407 5405 5403 5402 5400 5399 5398 5398 5397 5396 5396 5396
5501 5497 5493 5489 5485 5481 5476 5472 5468 5464 5459 5455 5451 5447 5443 5439 5436 5432 5429 5425 5422 5419 5417 5415 5413 5411 5409 5407 5405 5403 5401 5400 5398 5396 5394 5392 5391 5389 5388 5387 5386 5385 5384 5384
5493 5489 5485 5481 5477 5473 5468 5464 5460 5456 5451 5447 5443 5439 5435 5431 5428 5424 5420 5416 5414 5411 5409 5406 5404 5403 5401 5399 5397 5395 5393 5391 5389 5387 5385 5383 5381 5380 5378 5377 5375 5374 5373 5373
5485 5481 5477 5473 5469 5465 5460 5456 5452 5447 5443 5439 5435 5431 5427 5423 5419 5415 5412 5408 5405 5402 5400 5398 5396 5394 5392 5390 5388 5386 5384 5382 5380 5378 5376 5374 5372 5370 5369 5367 5366 5364 5363 5362
5477 5473 5469 5465 5461 5457 5452 5448 5444 5439 5435 5431 5427 5423 5419 5415 5411 5407 5404 5400 5397 5395 5392 5390 5388 5386 5384 5382 5380 5378 5375 5373 5371 5369 5367 5365 5363 5361 5360 5358 5356 5355 5353 5352
5469 5465 5461 5457 5453 5449 5444 5440 5436 5431 5427 5423 5418 5414 5411 5407 5403 5399 5396 5393 5390 5387 5384 5381 5379 5377 5375 5373 5371 5369 5367 5365 5363 5361 5359 5357 5355 5353 5351 5350 5348 5346 5344 5343
5462 5458 5453 5449 5445 5441 5436 5432 5427 5423 5418 5414 5410 5406 5402 5398 5395 5391 5388 5384 5381 5378 5376 5373 5371 5369 5367 5365 5363 5361 5359 5357 5355 5353 5351 5349 5347 5345 5343 5341 5339 5337 5336 5334
5454 5450 5446 5441 5437 5433 5428 5423 5419 5414 5410 5406 5401 5397 5393 5390 5386 5383 5379 5376 5373 5370 5367 5365 5363 5361 5359 5357 5355 5353 5351 5349 5347 5345 5343 5341 5339 5337 5335 5332 5331 5329 5327 5325
5447 5442 5438 5434 5429 5425 5420 5416 5411 5406 5402 5397 5393 5389 5385 5381 5377 5374 5370 5368 5365 5362 5359 5356 5354 5352 5350 5348 5346 5344 5342 5340 5338 5336 5334 5332 5330 5328 5326 5324 5322 5320 5318 5316
5439 5435 5430 5426 5422 5417 5413 5408 5403 5399 5394 5389 5385 5381 5377 5373 5369 5366 5362 5359 5356 5353 5351 5348 5345 5343 5341 5339 5338 5336 5334 5332 5330 5328 5326 5323 5321 5319 5317 5315 5313 5312 5310 5308
5431 5427 5423 5418 5414 5410 5405 5400 5396 5391 5386 5382 5377 5373 5369 5365 5361 5357 5354 5351 5348 5345 5342 5339 5337 5335 5333 5331 5329 5327 5324 5322 5320 5318 5316 5314 5312 5310 5309 5307 5305 5303 5302 5300
5423 5419 5415 5411 5407 5402 5397 5393 5388 5383 5379 5374 5370 5365 5361 5357 5353 5349 5346 5342 5339 5336 5334 5331 5328 5326 5324 5321 5319 5317 5315 5313 5311 5309 5307 5305 5303 5301 5299 5298 5296 5295 5293 5292
5415 5411 5407 5403 5399 5394 5390 5385 5381 5376 5371 5367 5362 5358 5354 5349 5345 5341 5338 5334 5331 5328 5325 5322 5320 5317 5315 5312 5310 5307 5305 5303 5301 5299 5297 5296 5294 5292 5291 5289 5288 5286 5285 5284
5407 5403 5399 5395 5391 5386 5382 5378 5373 5369 5364 5360 5355 5351 5346 5342 5338 5334 5330 5327 5323 5320 5317 5314 5311 5308 5306 5303 5301 5298 5296 5294 5292 5290 5288 5286 5285 5283 5282 5280 5279 5278 5277 5276